OpenBCM V2.0.3 (Linux)

Packet Radio Mailbox

IZ3LSV

[San Dona' di P. JN]

 Login: GUEST





  
LU9DCE > KEPS     15.02.18 18:13l 261 Lines 13013 Bytes #999 (0) @ WW
BID : 31895_LU9DCE
Read: GUEST
Subj: SAT TLE OF 15
Path: IZ3LSV<IR2UBX<EA2RCF<LU9DCE
Sent: 180215/1601Z @:LU9DCE.TOR.BA.ARG.SOAM #:31895 [TORTUGUITAS] FBB7.07
From: LU9DCE@LU9DCE.TOR.BA.ARG.SOAM
To  : KEPS@WW


            __    _  _  ___  ____   ___  ____    ____  ____  ____
           (  )  / )( \/ _ \(    \ / __)(  __)  (  _ \(  _ \/ ___)
           / (_/\) \/ (\__  )) D (( (__  ) _)    ) _ ( ) _ (\___ \
           \____/\____/(___/(____/ \___)(____)  (____/(____/(____/
               ESTACION DE PACKET RADIO - BUENOS AIRES (GF05OM)
                   BOLETINES INFORMATIVOS PROGRAMADOS (BIP)
                    LU9DCE@GMX.COM - RF 147070 @ 1200 BAUD
                           telnet lu9dce.dynu.com
             BBS port 6300 / NODE port 3694 / DXCLUSTER port 9000

+------------------------------------------------------------------------------+
OSCAR 7
1 07530U 74089B   18046.40767685 -.00000046  00000-0 -88356-5 0  9992
2 07530 101.6710  15.6363 0011867 210.0461 265.0758 12.53631077979333
OSCAR 11 (UoSAT 2)
1 14781U 84021B   18045.94254125 +.00000097 +00000-0 +18177-4 0  9990
2 14781 097.6660 087.2642 0009823 119.7187 240.5006 14.82980321805325
OSCAR 19 (LUSAT)
1 20442U 90005G   18045.87239834 -.00000006 +00000-0 +13890-4 0  9990
2 20442 098.6000 345.1899 0012309 146.6619 213.5342 14.32886661466319
KITSAT B
1 22825U 93061C   18045.91597232 -.00000010 +00000-0 +13779-4 0  9997
2 22825 098.8478 019.9138 0008227 350.7490 009.3539 14.30021732271825
POSAT 1
1 22826U 93061D   18045.89111869 -.00000003 +00000-0 +16422-4 0  9993
2 22826 098.8419 019.9415 0008568 340.1148 019.9699 14.30352608272273
RADIO ROSTO
1 23439U 94085A   18045.87272990 -.00000064 +00000-0 -59923-3 0  9992
2 23439 064.8153 186.6512 0161307 203.8088 324.1580 11.27566608952771
JAS 2
1 24278U 96046B   18046.22162355 -.00000003  00000-0  30460-4 0  9994
2 24278  98.5287 261.7007 0351286  67.4208 296.3700 13.53081297 61743
TECHSAT 1B
1 25397U 98043D   18045.88121265 -.00000021 +00000-0 +99345-5 0  9990
2 25397 098.6383 348.4233 0001954 048.5805 311.5542 14.23639676018109
ISS (ZARYA)
1 25544U 98067A   18045.93299769 +.00001486 +00000-0 +29736-4 0  9992
2 25544 051.6420 268.1770 0003640 101.5285 085.8672 15.54094273099505
PCSAT
1 26931U 01043C   18045.86132360 -.00000040  00000-0  16535-4 0  9995
2 26931  67.0508 185.0460 0005736 281.5166  78.5291 14.30493911855053
SAUDISAT 1C
1 27607U 02058C   18045.59812761 +.00000028 +00000-0 +24644-4 0  9998
2 27607 064.5551 104.7358 0050541 357.9195 002.1689 14.75419457814749
CUTE-1
1 27844U 03031E   18045.95755606 +.00000060 +00000-0 +47021-4 0  9997
2 27844 098.6889 056.4046 0009910 011.7621 348.3786 14.22094362758784
CUBESAT XI 4
1 27848U 03031J   18045.95334644 +.00000046 +00000-0 +41010-4 0  9992
2 27848 098.6978 056.7560 0009999 021.6372 338.5226 14.21700998758666
MOZHAYETS 4
1 27939U 03042A   18046.39153119  .00000123  00000-0  30588-4 0  9994
2 27939  97.9696 188.8160 0013286 169.2833 212.8133 14.66657235768963
CUBESAT XI 5
1 28895U 05043F   18045.89600035 +.00000149 +00000-0 +37356-4 0  9995
2 28895 097.8899 202.4332 0018192 096.1771 264.1505 14.63508542655751
CUTE-1.7+APD II
1 32785U 08021C   18045.86983055 +.00000239 +00000-0 +31563-4 0  9994
2 32785 097.5528 063.8549 0014637 085.0188 275.2700 14.88060881530914
DELFI C3
1 32789U 08021G   18045.71731100 +.00001331 +00000-0 +96027-4 0  9994
2 32789 097.5285 103.5514 0012305 002.5638 357.5650 15.05742508533257
SEEDS
1 32791U 08021J   18045.68697830 +.00000395 +00000-0 +45791-4 0  9995
2 32791 097.5448 068.7462 0014819 069.2720 291.0086 14.90466513531186
YUBELEINY
1 32953U 08025A   18046.42739802  .00000045  00000-0  24830-3 0  9990
2 32953  82.5001  88.4087 0020351 114.7750 245.5450 12.43081626441648
PRISM (HITOMI)
1 33493U 09002B   18046.38126051  .00000381  00000-0  39567-4 0  9994
2 33493  98.1428 303.7232 0015676   4.5569 355.5798 14.96069211492130
KKS-1 (KISEKI)
1 33499U 09002H   18045.89447462 +.00000120 +00000-0 +25832-4 0  9998
2 33499 098.3485 223.7220 0008466 328.5879 031.4822 14.75294043486727
SWISSCUBE
1 35932U 09051B   18045.98673854  .00000129  00000-0  40152-4 0  9993
2 35932  98.5254 194.3417 0007050 218.1049 141.9650 14.56120432445651
BEESAT
1 35933U 09051C   18045.88542405  .00000114  00000-0  36759-4 0  9992
2 35933  98.5294 195.7064 0005016 230.8313 129.2439 14.56228695445748
ITUPSAT 1
1 35935U 09051E   18045.94002291 +.00000080 +00000-0 +29463-4 0  9991
2 35935 098.5406 196.0166 0007392 227.4804 132.5769 14.55410312445514
XIWANG-1 (HOPE-1)
1 36122U 09072B   18045.94847281 -.00000024 +00000-0 +47422-4 0  9993
2 36122 100.0836 066.2645 0007882 039.1700 320.9984 13.16343377392465
TISAT 1
1 36799U 10035E   18045.88832873  .00000396  00000-0  46450-4 0  9999
2 36799  98.0871 179.0163 0011187 247.1003 112.9033 14.90692893411939
JUGNU
1 37839U 11058B   18046.13928500  .00000326  00000-0  32039-4 0  9994
2 37839  19.9623  57.3189 0018857 342.2715  74.1455 14.12609327328091
SRMSAT
1 37841U 11058D   18046.19079939  .00000300  00000-0  19802-4 0  9991
2 37841  19.9722 103.6924 0011625 230.2816 161.4434 14.10598157327632
M-CUBED/EXP-1 PRIME
1 37855U 11061F   18045.95450969 +.00001659 +00000-0 +92661-4 0  9991
2 37855 101.7247 045.9335 0177714 083.8734 278.2692 15.04047717342800
HORYU 2
1 38340U 12025D   18046.01114445  .00000220  00000-0  40402-4 0  9995
2 38340  98.3740  63.4883 0010564 236.2829 123.7373 14.75498517309099
STRAND 1
1 39090U 13009E   18046.09024055  .00000044  00000-0  30915-4 0  9998
2 39090  98.5325 253.9747 0008285 304.0944  55.9455 14.35010981260316
SOMP
1 39134U 13015E   18045.74239915 +.00001584 +00000-0 +84879-4 0  9996
2 39134 064.8639 162.8903 0025102 227.2104 132.6912 15.18804825265925
BEESAT 3
1 39135U 13015F   18045.76397548 +.00001539 +00000-0 +88192-4 0  9998
2 39135 064.8696 174.6104 0030251 248.5045 111.2854 15.16388248265690
BEESAT 2
1 39136U 13015G   18045.75715140 +.00001455 +00000-0 +85159-4 0  9997
2 39136 064.8693 177.0910 0030135 249.5382 110.2507 15.15865506265641
CUBEBUG 1
1 39153U 13018D   18046.23806756  .00000221  00000-0  35987-4 0  9991
2 39153  97.9791 142.2183 0016509 345.9016  14.1733 14.80339296259544
ZACUBE
1 39417U 13066B   18045.88210464  .00000236  00000-0  36204-4 0  9991
2 39417  97.6015  80.9637 0058891 194.3588 165.5954 14.80874561228692
TRITON 1
1 39427U 13066M   18045.92086026 +.00000175 +00000-0 +36238-4 0  9991
2 39427 097.6377 049.9829 0112795 291.3995 067.5207 14.67610565226457
GOMX 1
1 39430U 13066Q   18045.89057962 +.00000312 +00000-0 +65723-4 0  9992
2 39430 097.6849 031.6643 0151668 357.1849 002.8483 14.59022936225321
HUMSAT D
1 39433U 13066T   18046.36720269  .00000625  00000-0  66902-4 0  9992
2 39433  97.6212 106.9122 0032340 126.8720 233.5471 14.91746863230267
50 SAT
1 39436U 13066W   18046.41035625  .00072219  00000-0  92278-3 0  9998
2 39436  97.7119 172.7846 0006309 274.3040  85.7494 15.58992789234238
CUBEBUG 2
1 39440U 13066AA  18045.94968971 +.00000209 +00000-0 +36338-4 0  9995
2 39440 097.6093 068.4014 0079475 231.8168 127.5866 14.75611639226693
FUNCUBE 1
1 39444U 13066AE  18046.07675541  .00000293  00000-0  42713-4 0  9999
2 39444  97.6028  82.5179 0058188 189.5506 170.4606 14.81639516227575
UWE-3
1 39446U 13066AG  18045.77565017 +.00000210 +00000-0 +34736-4 0  9998
2 39446 097.6041 074.1919 0069533 213.9348 145.7407 14.78144337226440
SPROUT
1 39770U 14029E   18046.23986677  .00000316  00000-0  41727-4 0  9994
2 39770  97.8727 148.3613 0007619 244.8724 115.1735 14.86663088202241
UNISAT 6
1 40012U 14033C   18045.73463724 +.00000181 +00000-0 +34689-4 0  9996
2 40012 097.8266 286.4118 0057336 232.9750 126.6206 14.73763505196661
DUCHIFAT 1
1 40021U 14033M   18045.72252685 +.00000514 +00000-0 +58941-4 0  9994
2 40021 097.9179 324.2220 0011979 217.9376 142.0999 14.90196124198715
QB50P1
1 40025U 14033R   18045.74904783 +.00000277 +00000-0 +35786-4 0  9991
2 40025 097.9091 321.3818 0011415 223.5484 136.4832 14.88635050198065
CHUBUSAT 1
1 40300U 14070C   18046.28836066  .00000486  00000-0  24698-4 0  9998
2 40300  97.3754 126.5474 0019475 335.2045 110.5685 15.21381359181746
NUDT-PHONESAT
1 40900U 15049B   18046.47022000  .00002392  00000-0  11141-3 0  9993
2 40900  97.4429  56.1622 0015349  94.9216 265.3772 15.20780956133412
ZDPS 2A
1 40901U 15049C   18046.44270732  .00001035  00000-0  55875-4 0  9994
2 40901  97.4594  54.7067 0015456  99.9080 260.3899 15.16852383133207
ZDPS 2B
1 40902U 15049D   18045.93844337 +.00000977 +00000-0 +53197-4 0  9995
2 40902 097.4483 052.4385 0015537 098.8955 261.4038 15.16658575133116
XW-2A
1 40903U 15049E   18046.36450747  .00002102  00000-0  54627-4 0  9993
2 40903  97.3989  79.9446 0016069 107.9073 252.3926 15.39999939135050
KAITUO 1A
1 40904U 15049F   18046.35106912  .00000616  00000-0  36549-4 0  9996
2 40904  97.4577  52.2287 0016453  97.3995  15.5123 15.14881591133057
OBJECT G
1 40905U 15049G   18046.40120031  .00000496  00000-0  30915-4 0  9998
2 40905  97.4568  50.5588 0017527  92.1160 268.2078 15.13856335132998
XW-2C
1 40906U 15049H   18046.40140709  .00000801  00000-0  46258-4 0  9990
2 40906  97.4590  52.1467 0016788  91.9650 268.3505 15.15014079133054
XW-2D
1 40907U 15049J   18045.96922545 +.00000833 +00000-0 +47792-4 0  9996
2 40907 097.4561 051.4359 0016149 091.4718 268.8365 15.15151618132998
LILACSAT 2
1 40908U 15049K   18045.96359796 +.00000465 +00000-0 +29606-4 0  9994
2 40908 097.4670 050.9429 0017769 092.0284 268.2982 15.13405636132883
XW-2F
1 40910U 15049M   18046.47247909  .00001268  00000-0  68803-4 0  9990
2 40910  97.4571  53.0259 0016908  86.6137 273.7029 15.16257911133014
XW-2B
1 40911U 15049N   18046.44471125  .00000842  00000-0  48365-4 0  9995
2 40911  97.4600  52.3921 0016059  90.4848 269.8225 15.15101239132962
